User: anonymous   Login
Location: Bílinka
(49.3579°N, 14.3767°E)
Time: 01:03:35
(UTC+00:00)
Language:

Cosmos 540 Rocket - Orbit

View from above orbital plane
View from above orbital plane
View from above satellite
View from above satellite

Ground track
Ground track

The orbit data is extracted from the following two-line orbital elements,

1 06324U 72104B   24201.58356687  .00000807  00000-0  24163-3 0  9990
2 06324  74.0790 345.4590 0008848 182.8376 177.2732 14.44417581708965
Epoch (UTC): 19 July 2024 14:00:20
Eccentricity: 0.0008848
inclination: 74.0790°
perigee height: 737 km
apogee height: 750 km
right ascension of ascending node: 345.4590°
argument of perigee: 182.8376°
revolutions per day: 14.44417581
mean anomaly at epoch: 177.2732°
orbit number at epoch: 70896

The dashed part of the orbit path shows where the satellite is in the earth's shadow,  

DLR